Location: Unspecified
(44.4377°N, 88.0525°W)
Time: 11:23:29
(UTC-05:00)

CZ-3 Stage 3 - Visible Passes

Search period start: 28 July 2014 00:00
Search period end: 07 August 2014 00:00
Orbit: 421 x 34831 km, 30.6° (Epoch: 27 July)

Date Brightness Start Highest point End Pass type
(mag) Time Alt. Az. Time Alt. Az. Time Alt. Az.
29 Jul 8.2 04:59:54 10° S 08:37:59 23° SSE 09:00:16 10° ESE visible
01 Aug 8.1 04:43:32 10° S 08:38:00 25° SSE 08:59:23 10° ESE visible
04 Aug 8.1 04:27:41 10° S 08:37:49 27° SSE 08:58:18 10° ESE visible
